Regional Weather Roundup
Issued by NWS

Home | Current Version | Previous Version | Graphics & Text | Print | Product List | Glossary On
Versions: 1 2 3 4 5 6 7 8 9 10 11 12 13 14 15 16 17 18 19 20 21 22 23 24 25 26 27 28 29 30 31 32 33 34 35 36 37 38 39 40 41 42 43 44 45 46 47 48 49 50
000
ASUS45 KSLC 041210
RWRUT

UTAH REGIONAL WEATHER ROUNDUP
NATIONAL WEATHER SERVICE SALT LAKE CITY UT
600 AM MDT MON MAY 04 2015

UTZ001>011-023>025-041300-

NORTHERN UTAH

CITY           SKY/WX    TMP DP  RH WIND       PRES   REMARKS
BRIGHAM CITY   MOCLDY    53  43  67 CALM      29.96R
HILL AFB       MOCLDY    58  41  53 VRB6      29.96R
LOGAN          CLEAR     44  41  89 NE3       29.97R
OGDEN          MOCLDY    58  41  53 SE3       29.94R
PROVO AIRPORT  MOCLDY    57  45  62 W6        29.96F
SALT LAKE CITY MOCLDY    59  44  57 S7        29.93S
VERNAL         PTCLDY    47  36  65 W5        30.02R
WENDOVER       MOCLDY    57  36  44 NW6       29.92S
HEBER CITY     DRIZZLE   50  43  76 W6        30.02F
WEST JORDAN    CLEAR     55  45  67 SW5       29.96F

$$

UTZ012>022-026-027-041300-

SOUTHERN/CENTRAL UTAH

CITY           SKY/WX    TMP DP  RH WIND       PRES   REMARKS
BLANDING       CLOUDY    49  37  63 N5        30.09S
BRYCE CANYON   CLOUDY    41  35  79 NW6       30.09S
CEDAR CITY     MOCLDY    49  43  80 SW5       30.00S
DELTA          MOCLDY    54  39  57 S6        29.95S
HANKSVILLE     CLOUDY    55  45  67 N7        29.98R
MILFORD        CLOUDY    52  37  56 SW7       29.96F
MOAB/CYNLANDS  PTCLDY    57  42  57 SE5       29.95S
PRICE          PTCLDY    51  37  58 N8        30.01S
ST GEORGE      CLOUDY    66  39  37 N9        29.90S
KANAB          CLOUDY    48  41  76 CALM      30.03R

$$

REGIONAL REPORTS     COLORADO/ARIZONA

CITY           SKY/WX    TMP DP  RH WIND       PRES   REMARKS
CRAIG, CO      CLOUDY    42  39  89 CALM      30.06R
GRAND JUNCTION PTCLDY    53  42  66 E10       29.99S
RIFLE          PTCLDY    46  44  93 CALM      30.05S
MONTROSE       CLOUDY    45  38  76 S5        30.06S
CORTEZ         CLEAR     40  35  83 CALM      30.04S
PAGE, AZ       PTCLDY    57  39  51 CALM      29.94S
GRAND CANYON   MOCLDY    33  31  92 CALM      30.05R
KINGMAN        CLEAR     60  39  45 E6        29.87S
FLAGSTAFF      CLOUDY    44  38  79 CALM      30.05F

$$

REGIONAL REPORTS    NEVADA/IDAHO/WYOMING

CITY           SKY/WX    TMP DP  RH WIND       PRES   REMARKS
LAS VEGAS, NV  PTCLDY    71  31  22 S7        29.74S
ELY            MOCLDY    43  34  70 S15       30.00S
ELKO           CLEAR     43  33  68 E5        29.95S
POCATELLO, ID  CLEAR     45  37  73 SW5       29.95S
BURLEY         CLEAR     44  40  85 E3        29.91R
EVANSTON, WY   PTCLDY    41  36  82 E8        30.07S
ROCK SPRINGS   PTCLDY    40  35  83 E6        30.07R
KEMMERER       PTCLDY    34  34 100 N8        30.09S WCI  27

$$



USA.gov is the U.S. government's official web portal to all federal, state and local government web resources and services.